STARLINK-1697

decayed
NORAD ID: 46546 Int'l Des: 2020-070 Owner: SPXS Country: US Constellation: starlink
LEOCIRCULAR

关于 STARLINK-1697

正在加载描述...

高度历史

Altitude vs Time

uPlot chart will show altitude changes over time

两行轨道根数

1 46546U 20070Q 25095.75456251 .07598140 12239-4 12494-2 0 9997
2 46546 53.0272 200.6828 0009908 309.4239 130.8056 16.32511540249004
Epoch: Apr 5, 2025 • Age: 3916 hours

当前状态

Position data unavailable
发射日期 Oct 6, 2020
运行时间 4.9 years
衰减日期 Apr 6, 2025
类型 internet

技术详情

分类 Payload
质量 260.00 kg
干质量 248.00 kg
总质量 260.00 kg
长度 0.20 m
直径 2.80 m
跨度 9.00 m
形状 Box + pan
制造商 SPXS
平台类型 Starlink
阶段状态 Unknown Transfer Status
所有者/国家 SPXS/US

大型星座

Loading constellations...